GW5804 Weather Reports


time (UTC)temp
C
wind
direction
speed
KPH
gust
KPH
rain 1hr
cm
rain 24hr
cm
rain mn
cm
humidity
%
barometer
mb
20260505060738 15 175 1.6 3.2 0.00 0.00 0.00 92 1015.2
20260505060235 15 210 0.0 1.6 0.00 0.00 0.00 92 1015.2
20260505055730 15 114 1.6 3.2 0.00 0.00 0.00 92 1015.4
20260505055227 15 217 0.0 0.0 0.00 0.00 0.00 93 1015.2
20260505054724 14 173 0.0 0.0 0.00 0.00 0.00 93 1015.4
20260505054222 14 227 0.0 0.0 0.00 0.00 0.00 94 1015.3
20260505053720 14 101 0.0 0.0 0.00 0.00 0.00 94 1015.1
20260505053216 14 172 0.0 1.6 0.00 0.00 0.00 94 1015.2
20260505052713 14 221 0.0 0.0 0.00 0.00 0.00 95 1015.2
20260505052210 13 172 0.0 0.0 0.00 0.00 0.00 95 1015.1
20260505051707 13 150 3.2 4.8 0.00 0.00 0.00 95 1015.1
20260505051205 13 257 0.0 0.0 0.00 0.00 0.00 95 1015.2
20260505050703 13 273 0.0 0.0 0.00 0.00 0.00 95 1015.1
20260505050201 13 248 0.0 0.0 0.00 0.00 0.00 96 1015.1
20260505041636 13 270 0.0 0.0 0.00 0.00 0.00 96 1015.2
20260505041134 13 277 0.0 0.0 0.00 0.00 0.00 96 1015.2
20260505040630 13 250 0.0 0.0 0.00 0.00 0.00 96 1015.0
20260505040128 13 249 0.0 0.0 0.00 0.00 0.00 96 1014.9
20260505035624 13 249 0.0 0.0 0.00 0.00 0.00 96 1014.9
20260505035120 13 229 0.0 0.0 0.00 0.00 0.00 96 1015.1
20260505034617 13 233 0.0 0.0 0.00 0.00 0.00 96 1015.1
20260505034114 13 189 0.0 0.0 0.00 0.00 0.00 96 1015.0
20260505033611 13 221 0.0 0.0 0.00 0.00 0.00 96 1015.1
20260505033109 13 212 0.0 0.0 0.00 0.00 0.00 96 1015.2
20260505032607 13 232 0.0 0.0 0.00 0.00 0.00 96 1015.2
20260505032102 13 226 0.0 0.0 0.00 0.00 0.00 96 1015.3
20260505031600 13 246 0.0 0.0 0.00 0.00 0.00 96 1015.2
20260505031056 13 254 0.0 0.0 0.00 0.00 0.00 96 1015.3
20260505030554 13 245 0.0 0.0 0.00 0.00 0.00 96 1015.1
20260505030049 13 233 0.0 0.0 0.00 0.00 0.00 96 1015.3
20260505025545 13 137 0.0 0.0 0.00 0.00 0.00 96 1015.2
20260505025045 13 222 0.0 0.0 0.00 0.00 0.00 96 1015.4
20260505024541 13 221 0.0 0.0 0.00 0.00 0.00 95 1015.4
20260505024038 13 114 0.0 0.0 0.00 0.00 0.00 96 1015.4
20260505023535 13 105 0.0 0.0 0.00 0.00 0.00 95 1015.3
20260505023033 13 131 0.0 0.0 0.00 0.00 0.00 95 1015.4
20260505022530 13 236 0.0 0.0 0.00 0.00 0.00 95 1015.5
20260505022027 13 141 0.0 0.0 0.00 0.00 0.00 95 1015.3
20260505021524 13 216 0.0 0.0 0.00 0.00 0.00 95 1015.5
20260505021020 13 198 0.0 0.0 0.00 0.00 0.00 95 1015.8
20260505020520 13 173 0.0 0.0 0.00 0.00 0.00 95 1015.6
20260505020018 13 168 0.0 0.0 0.00 0.00 0.00 95 1015.5
20260505015515 13 145 0.0 0.0 0.00 0.00 0.00 95 1015.5
20260505015012 13 177 0.0 0.0 0.00 0.00 0.00 95 1015.7
20260505014508 13 155 1.6 3.2 0.00 0.00 0.00 95 1015.6
20260505014006 13 161 1.6 3.2 0.00 0.00 0.00 95 1015.8
20260505013502 13 146 0.0 1.6 0.00 0.00 0.00 95 1015.8
20260505012959 13 197 1.6 1.6 0.00 0.00 0.00 95 1015.9
20260505012458 13 190 3.2 4.8 0.00 0.00 0.00 95 1015.8
20260505011954 13 130 1.6 3.2 0.00 0.00 0.00 95 1015.9
20260505011450 13 154 3.2 3.2 0.00 0.00 0.00 95 1015.7
20260505010947 13 148 1.6 3.2 0.00 0.00 0.00 95 1015.8
20260505010443 13 163 1.6 3.2 0.00 0.00 0.00 94 1015.9
20260505005939 13 180 0.0 1.6 0.00 0.00 0.00 94 1016.0
20260505005436 13 133 3.2 4.8 0.00 0.00 0.00 94 1015.8
20260505004934 14 130 3.2 4.8 0.00 0.00 0.00 94 1016.0
20260505004430 14 117 1.6 3.2 0.00 0.00 0.00 93 1015.9
20260505003927 13 108 3.2 3.2 0.00 0.00 0.00 93 1015.9
20260505003425 13 114 3.2 4.8 0.00 0.00 0.00 92 1016.0
20260505002920 14 161 1.6 3.2 0.00 0.00 0.00 92 1016.1
20260505002417 14 176 0.0 1.6 0.00 0.00 0.00 91 1016.2
20260505001915 14 158 3.2 4.8 0.00 0.00 0.00 91 1016.2
20260505001413 14 178 0.0 0.0 0.00 0.00 0.00 90 1016.4
20260505000910 14 74 0.0 1.6 0.00 0.00 0.00 90 1016.4
20260505000408 14 94 0.0 0.0 0.00 0.00 0.00 89 1016.2
20260504235904 13 149 0.0 1.6 0.00 0.00 0.00 90 1016.2
20260504235401 14 123 1.6 1.6 0.00 0.00 0.00 90 1016.2
20260504234857 15 111 3.2 4.8 0.00 0.00 0.00 91 1016.4
20260504234355 15 90 0.0 0.0 0.00 0.00 0.00 90 1016.6
20260504233851 15 152 4.8 4.8 0.00 0.00 0.00 90 1016.6
20260504233347 15 117 0.0 1.6 0.00 0.00 0.00 90 1016.5
20260504232844 15 150 1.6 3.2 0.00 0.00 0.00 89 1016.7
20260504232341 14 137 3.2 3.2 0.00 0.00 0.00 89 1016.7
20260504231838 14 83 3.2 3.2 0.00 0.00 0.00 89 1016.6
20260504231334 14 58 1.6 1.6 0.00 0.00 0.00 89 1016.7
20260504230831 14 142 1.6 1.6 0.00 0.00 0.00 89 1016.8
20260504230329 14 133 1.6 3.2 0.00 0.00 0.00 89 1016.8
20260504225827 14 176 1.6 1.6 0.00 0.00 0.00 90 1016.8
20260504225323 15 132 1.6 1.6 0.00 0.00 0.00 90 1016.8
20260504224821 15 144 1.6 1.6 0.00 0.00 0.00 90 1016.9
20260504224318 15 172 1.6 3.2 0.00 0.00 0.00 89 1016.8
20260504223814 15 145 1.6 1.6 0.00 0.00 0.00 89 1016.9
20260504223310 15 145 1.6 3.2 0.00 0.00 0.00 88 1016.8
20260504222807 15 152 0.0 1.6 0.00 0.00 0.00 88 1016.9
20260504222305 15 140 1.6 1.6 0.00 0.00 0.00 88 1016.9
20260504221801 15 115 3.2 4.8 0.00 0.00 0.00 88 1016.9
20260504221258 14 154 0.0 0.0 0.00 0.00 0.00 88 1016.9
20260504220755 14 249 0.0 0.0 0.00 0.00 0.00 88 1017.0
20260504220252 14 221 0.0 0.0 0.00 0.00 0.00 87 1017.1
20260504215749 14 289 0.0 0.0 0.00 0.00 0.00 86 1016.9
20260504215246 14 292 0.0 0.0 0.00 0.00 0.00 86 1016.8
20260504214741 14 292 0.0 0.0 0.00 0.00 0.00 85 1017.0
20260504214238 14 292 0.0 0.0 0.00 0.00 0.00 85 1016.8
20260504213735 14 292 0.0 0.0 0.00 0.00 0.00 85 1016.8
20260504213231 14 292 0.0 0.0 0.00 0.00 0.00 85 1017.1
20260504212728 14 292 0.0 0.0 0.00 0.00 0.00 84 1017.1
20260504212225 14 293 0.0 0.0 0.00 0.00 0.00 84 1017.0
20260504211723 14 293 0.0 0.0 0.00 0.00 0.00 84 1017.1
20260504211218 14 293 0.0 0.0 0.00 0.00 0.00 84 1017.2
20260504210716 14 294 0.0 0.0 0.00 0.00 0.00 84 1017.0
20260504210213 14 289 0.0 0.0 0.00 0.00 0.00 83 1017.0
20260504205710 15 287 0.0 0.0 0.00 0.00 0.00 83 1017.0
20260504205208 15 181 0.0 0.0 0.00 0.00 0.00 82 1016.8
20260504204706 15 91 0.0 0.0 0.00 0.00 0.00 82 1016.9
20260504204204 15 123 1.6 1.6 0.00 0.00 0.00 82 1016.8
20260504203703 15 41 0.0 1.6 0.00 0.00 0.00 82 1016.8
20260504203200 15 92 1.6 3.2 0.00 0.00 0.00 81 1017.0
20260504202700 16 104 1.6 1.6 0.00 0.00 0.00 80 1016.9
20260504202157 16 117 1.6 3.2 0.00 0.00 0.00 78 1016.9
20260504201654 16 120 3.2 4.8 0.00 0.00 0.00 77 1017.0
20260504201152 16 118 3.2 3.2 0.00 0.00 0.00 76 1017.1
20260504200649 16 216 0.0 0.0 0.00 0.00 0.00 74 1017.0
20260504200145 16 217 0.0 0.0 0.00 0.00 0.00 72 1017.0
20260504195641 16 202 1.6 1.6 0.00 0.00 0.00 71 1016.9
20260504195137 16 180 1.6 1.6 0.00 0.00 0.00 70 1016.9
20260504194635 16 147 1.6 3.2 0.00 0.00 0.00 71 1016.9
20260504194131 16 150 1.6 3.2 0.00 0.00 0.00 72 1016.9
20260504193627 16 91 1.6 3.2 0.00 0.00 0.00 74 1016.8
20260504193125 16 121 1.6 3.2 0.00 0.00 0.00 74 1016.9
20260504192623 16 88 3.2 3.2 0.00 0.00 0.00 75 1016.8
20260504192121 16 151 3.2 4.8 0.00 0.00 0.00 75 1016.7
20260504191619 16 84 1.6 1.6 0.00 0.00 0.00 74 1016.7
20260504191115 16 174 3.2 4.8 0.00 0.00 0.00 73 1016.5
20260504190611 16 148 4.8 4.8 0.00 0.00 0.00 73 1016.6
20260504190108 16 113 3.2 3.2 0.00 0.00 0.00 73 1016.5
20260504185604 16 138 3.2 3.2 0.00 0.00 0.00 72 1016.5
20260504185101 16 162 3.2 3.2 0.00 0.00 0.00 70 1016.4
20260504184557 16 116 1.6 3.2 0.00 0.00 0.00 69 1016.5
20260504184052 16 125 3.2 4.8 0.00 0.00 0.00 69 1016.5
20260504183549 16 119 3.2 4.8 0.00 0.00 0.00 68 1016.2
20260504183047 16 110 4.8 4.8 0.00 0.00 0.00 68 1016.5
20260504182544 16 132 4.8 6.4 0.00 0.00 0.00 68 1016.3
20260504182041 17 150 3.2 3.2 0.00 0.00 0.00 68 1016.2
20260504181538 17 137 1.6 3.2 0.00 0.00 0.00 67 1016.1
20260504181037 17 140 1.6 3.2 0.00 0.00 0.00 66 1016.3
20260504180535 17 150 4.8 4.8 0.00 0.00 0.00 66 1016.3
20260504180034 17 196 3.2 4.8 0.00 0.00 0.00 67 1016.1
20260504175530 17 200 4.8 9.7 0.00 0.00 0.00 66 1016.2
20260504175027 17 121 0.0 1.6 0.00 0.00 0.00 66 1016.1
20260504174525 17 132 1.6 3.2 0.00 0.00 0.00 67 1016.3
20260504174022 17 132 3.2 3.2 0.00 0.00 0.00 67 1016.2
20260504173519 17 106 4.8 4.8 0.00 0.00 0.00 66 1016.3
20260504173016 17 138 3.2 3.2 0.00 0.00 0.00 65 1016.2
20260504172512 18 161 3.2 3.2 0.00 0.00 0.00 66 1016.1
20260504172009 18 156 3.2 4.8 0.00 0.00 0.00 65 1016.2
20260504171506 18 121 3.2 4.8 0.00 0.00 0.00 62 1016.1
20260504171003 18 151 4.8 6.4 0.00 0.00 0.00 65 1016.3
20260504170459 18 81 4.8 6.4 0.00 0.00 0.00 68 1016.4
20260504160419 20 212 1.6 1.6 0.00 0.00 0.00 61 1016.5
20260504150843 21 161 3.2 4.8 0.00 0.00 0.00 56 1016.7
20260504150339 21 191 6.4 9.7 0.00 0.00 0.00 58 1016.9
20260504141309 21 179 6.4 6.4 0.00 0.00 0.00 60 1017.0
20260504140806 22 163 1.6 3.2 0.00 0.00 0.00 61 1017.2
20260504140301 22 183 6.4 9.7 0.00 0.00 0.00 60 1017.3
20260504130730 21 242 6.4 11.3 0.00 0.00 0.00 64 1017.9
20260504130226 21 141 6.4 11.3 0.00 0.00 0.00 63 1017.9
20260504120150 21 220 4.8 6.4 0.00 0.00 0.00 65 1018.2
20260504110617 21 249 4.8 9.7 0.00 0.00 0.00 60 1018.1
20260504110113 21 162 6.4 6.4 0.00 0.00 0.00 58 1018.2
20260504100539 20 106 9.7 12.9 0.00 0.00 0.00 58 1018.5
20260504081933 20 212 1.6 3.2 0.00 0.00 0.00 63 1018.0
20260504081430 19 220 3.2 3.2 0.00 0.00 0.00 60 1018.2
20260504080925 20 195 4.8 9.7 0.00 0.00 0.00 57 1018.1
20260504080422 20 195 4.8 9.7 0.00 0.00 0.00 57 1018.1
20260504070350 20 208 0.0 1.6 0.00 0.00 0.00 61 1017.7